TimeCDT,TemperatureF,Dew PointF,Humidity,Sea Level PressureIn,VisibilityMPH,Wind Direction,Wind SpeedMPH,Gust SpeedMPH,PrecipitationIn,Events,Conditions,WindDirDegrees,DateUTC
12:15 AM,58.6,54.5,86,29.81,10.0,ESE,6.9,-,N/A,,Overcast,110,2013-09-24 05:15:00
12:35 AM,59.0,54.5,85,29.81,10.0,East,5.8,-,N/A,,Overcast,100,2013-09-24 05:35:00
12:55 AM,58.6,54.5,86,29.82,10.0,NNW,3.5,-,N/A,,Overcast,340,2013-09-24 05:55:00
1:15 AM,57.4,54.1,89,29.82,10.0,NW,4.6,-,N/A,,Overcast,320,2013-09-24 06:15:00
1:35 AM,57.4,54.3,90,29.82,10.0,NNW,8.1,-,N/A,,Overcast,330,2013-09-24 06:35:00
1:55 AM,57.2,53.8,88,29.83,10.0,NNW,6.9,-,N/A,,Mostly Cloudy,330,2013-09-24 06:55:00
2:35 AM,57.2,54.0,89,29.84,10.0,NNW,4.6,-,N/A,,Overcast,330,2013-09-24 07:35:00
2:55 AM,57.4,54.1,89,29.84,10.0,NNW,4.6,-,N/A,,Overcast,340,2013-09-24 07:55:00
3:15 AM,57.6,54.5,90,29.84,10.0,NNW,4.6,-,N/A,,Overcast,340,2013-09-24 08:15:00
3:35 AM,57.7,54.5,89,29.85,10.0,NNW,4.6,-,N/A,,Overcast,340,2013-09-24 08:35:00
3:55 AM,58.1,54.5,88,29.85,10.0,NW,4.6,-,N/A,,Overcast,320,2013-09-24 08:55:00
4:35 AM,56.7,53.4,89,29.86,10.0,NW,8.1,-,N/A,,Mostly Cloudy,310,2013-09-24 09:35:00
4:55 AM,55.4,52.0,88,29.86,10.0,NW,5.8,-,N/A,,Scattered Clouds,320,2013-09-24 09:55:00
5:15 AM,54.9,51.8,89,29.87,10.0,NW,6.9,-,N/A,,Scattered Clouds,310,2013-09-24 10:15:00
5:35 AM,54.5,51.8,91,29.87,7.0,NW,6.9,-,N/A,,Scattered Clouds,320,2013-09-24 10:35:00
5:55 AM,54.9,52.3,91,29.88,0.8,NNW,8.1,-,N/A,,Overcast,330,2013-09-24 10:55:00
6:15 AM,55.9,53.6,92,29.88,0.5,NNW,8.1,-,N/A,Fog,Fog,340,2013-09-24 11:15:00
6:35 AM,57.2,54.7,91,29.89,4.0,NNW,8.1,-,N/A,,Overcast,340,2013-09-24 11:35:00
6:55 AM,57.7,55.4,92,29.90,5.0,North,9.2,-,N/A,,Overcast,350,2013-09-24 11:55:00
7:15 AM,58.1,55.4,91,29.90,7.0,North,11.5,-,N/A,,Overcast,350,2013-09-24 12:15:00
7:35 AM,58.5,55.4,90,29.91,7.0,NNW,8.1,-,N/A,,Overcast,340,2013-09-24 12:35:00
7:55 AM,58.6,55.4,89,29.92,7.0,NNW,10.4,-,N/A,,Overcast,340,2013-09-24 12:55:00
8:15 AM,58.5,55.0,88,29.92,10.0,North,10.4,-,N/A,,Overcast,350,2013-09-24 13:15:00
8:35 AM,58.3,54.7,88,29.93,10.0,NNW,10.4,-,N/A,,Overcast,330,2013-09-24 13:35:00
8:55 AM,58.3,54.5,87,29.94,10.0,NNW,10.4,-,N/A,,Overcast,330,2013-09-24 13:55:00
9:15 AM,59.0,54.9,86,29.95,10.0,NW,10.4,-,N/A,,Overcast,320,2013-09-24 14:15:00
9:35 AM,59.0,54.7,86,29.96,10.0,NNW,11.5,-,N/A,,Overcast,330,2013-09-24 14:35:00
9:55 AM,59.0,54.9,86,29.97,10.0,NNW,13.8,19.6,N/A,,Overcast,330,2013-09-24 14:55:00
10:15 AM,59.0,54.7,86,29.97,10.0,NW,11.5,-,N/A,,Overcast,320,2013-09-24 15:15:00
10:35 AM,59.2,54.7,85,29.98,10.0,NNW,10.4,-,N/A,,Overcast,330,2013-09-24 15:35:00
10:55 AM,59.4,54.5,84,29.98,10.0,NW,11.5,16.1,N/A,,Overcast,320,2013-09-24 15:55:00
11:15 AM,60.3,54.7,82,29.99,10.0,NNW,12.7,-,N/A,,Overcast,330,2013-09-24 16:15:00
11:35 AM,61.2,54.9,80,29.99,10.0,NW,12.7,19.6,N/A,,Overcast,320,2013-09-24 16:35:00
11:55 AM,62.1,55.0,78,29.99,10.0,NNW,11.5,-,N/A,,Overcast,330,2013-09-24 16:55:00
12:15 PM,64.4,55.4,73,29.99,10.0,NNW,10.4,-,N/A,,Overcast,340,2013-09-24 17:15:00
12:55 PM,66.2,55.0,67,29.99,10.0,NNW,11.5,-,N/A,,Overcast,340,2013-09-24 17:55:00
1:15 PM,67.6,54.9,64,29.98,10.0,North,10.4,16.1,N/A,,Mostly Cloudy,10,2013-09-24 18:15:00
1:35 PM,69.1,54.7,60,29.98,10.0,North,9.2,-,N/A,,Scattered Clouds,350,2013-09-24 18:35:00
1:55 PM,71.1,54.3,55,29.97,10.0,North,10.4,-,N/A,,Scattered Clouds,350,2013-09-24 18:55:00
2:15 PM,70.9,53.6,54,29.97,10.0,NNW,10.4,-,N/A,,Clear,340,2013-09-24 19:15:00
2:35 PM,71.6,54.0,54,29.96,10.0,North,8.1,-,N/A,,Scattered Clouds,350,2013-09-24 19:35:00
2:55 PM,73.4,53.4,49,29.96,10.0,NNE,10.4,-,N/A,,Scattered Clouds,20,2013-09-24 19:55:00
3:15 PM,73.2,52.9,49,29.95,10.0,North,6.9,-,N/A,,Scattered Clouds,10,2013-09-24 20:15:00
3:35 PM,73.4,51.8,47,29.95,10.0,North,4.6,-,N/A,,Scattered Clouds,360,2013-09-24 20:35:00
3:55 PM,74.5,50.7,43,29.95,10.0,North,8.1,-,N/A,,Scattered Clouds,360,2013-09-24 20:55:00
4:15 PM,73.9,50.0,43,29.95,10.0,North,5.8,-,N/A,,Scattered Clouds,360,2013-09-24 21:15:00
4:35 PM,71.4,52.2,51,29.94,10.0,Calm,Calm,-,N/A,,Scattered Clouds,0,2013-09-24 21:35:00
4:55 PM,72.3,52.0,49,29.94,10.0,Calm,Calm,-,N/A,,Clear,0,2013-09-24 21:55:00
5:15 PM,73.9,49.8,43,29.93,10.0,NNW,4.6,-,N/A,,Clear,340,2013-09-24 22:15:00
5:35 PM,73.9,49.1,41,29.93,10.0,North,5.8,-,N/A,,Clear,350,2013-09-24 22:35:00
5:55 PM,74.1,49.6,42,29.93,10.0,Calm,Calm,-,N/A,,Scattered Clouds,0,2013-09-24 22:55:00
6:15 PM,73.8,48.9,41,29.93,10.0,Calm,Calm,-,N/A,,Mostly Cloudy,0,2013-09-24 23:15:00
6:35 PM,73.4,50.4,44,29.93,10.0,East,8.1,-,N/A,,Mostly Cloudy,80,2013-09-24 23:35:00
6:55 PM,70.7,52.3,52,29.93,10.0,ESE,4.6,-,N/A,,Scattered Clouds,110,2013-09-24 23:55:00
7:15 PM,68.0,52.7,58,29.93,10.0,SE,4.6,-,N/A,,Clear,130,2013-09-25 00:15:00
7:35 PM,66.6,52.9,61,29.93,10.0,SE,3.5,-,N/A,,Clear,140,2013-09-25 00:35:00
7:55 PM,65.8,52.9,63,29.93,10.0,Calm,Calm,-,N/A,,Clear,0,2013-09-25 00:55:00
8:15 PM,64.8,52.9,65,29.93,10.0,SSE,3.5,-,N/A,,Clear,150,2013-09-25 01:15:00
8:35 PM,63.7,53.2,69,29.94,10.0,SSE,4.6,-,N/A,,Clear,160,2013-09-25 01:35:00
8:55 PM,62.2,53.6,73,29.93,10.0,SSE,4.6,-,N/A,,Clear,150,2013-09-25 01:55:00
9:15 PM,62.6,53.1,71,29.93,10.0,SSE,4.6,-,N/A,,Clear,150,2013-09-25 02:15:00
9:35 PM,61.3,52.9,74,29.93,10.0,SSE,4.6,-,N/A,,Clear,150,2013-09-25 02:35:00
9:55 PM,60.1,52.5,76,29.93,10.0,SSE,4.6,-,N/A,,Clear,160,2013-09-25 02:55:00
10:15 PM,58.5,52.7,81,29.93,10.0,SSE,3.5,-,N/A,,Clear,160,2013-09-25 03:15:00
10:35 PM,59.2,52.9,80,29.93,10.0,South,3.5,-,N/A,,Clear,170,2013-09-25 03:35:00
10:55 PM,60.1,52.5,76,29.93,10.0,SSE,4.6,-,N/A,,Clear,160,2013-09-25 03:55:00
11:15 PM,57.7,51.3,79,29.93,10.0,South,4.6,-,N/A,,Clear,170,2013-09-25 04:15:00
11:35 PM,58.1,52.0,80,29.93,10.0,South,3.5,-,N/A,,Clear,180,2013-09-25 04:35:00
11:55 PM,57.2,51.8,82,29.93,10.0,South,3.5,-,N/A,,Clear,170,2013-09-25 04:55:00